CUBEBUG-2 (LO-74)

Last updated on Tue Oct 15 2024 00:02:59 GMT+0000 (Coordinated Universal Time)

1 39440U 13066AA 24288.56678037 .00007552 00000+0 84419-3 0 9999 2 39440 97.8213 229.8606 0064926 242.7359 116.7233 14.85687599586042
UTC large
Height (km)
Speed (km/s)
/
Latitude / Longitude
Inclination (degrees)
Orbital Period (minutes)
Azimuth
Elevation
Range (km)
Doppler Factor

Next 0 passes for location: London (51.5072 / 0.1276)

Sorry there are no passes over London.